Time,TemperatureF,DewpointF,PressureIn,WindDirection,WindDirectionDegrees,WindSpeedMPH,WindSpeedGustMPH,Humidity,HourlyPrecipIn,Conditions,Clouds,dailyrainin,SoftwareType,DateUTC
2013-05-11 00:04:00,59.0,58.4,30.01,WNW,292,0.0,-999.0,98,-99.99,,,0.00,Acu-Link.com,2013-05-11 05:04:00,
2013-05-11 00:19:00,58.8,58.3,30.01,WNW,292,0.0,-999.0,98,-99.99,,,0.00,Acu-Link.com,2013-05-11 05:19:00,
2013-05-11 00:34:00,59.0,58.4,30.02,SW,225,0.0,-999.0,98,-99.99,,,0.00,Acu-Link.com,2013-05-11 05:34:00,
2013-05-11 00:49:00,58.8,58.3,30.02,WNW,292,0.0,-999.0,98,-99.99,,,0.00,Acu-Link.com,2013-05-11 05:49:00,
2013-05-11 01:05:00,59.7,59.2,30.02,WNW,292,0.0,-999.0,98,-99.99,,,0.00,Acu-Link.com,2013-05-11 06:05:00,
2013-05-11 01:20:00,59.9,59.3,30.01,West,270,0.0,-999.0,98,-99.99,,,0.00,Acu-Link.com,2013-05-11 06:20:00,
2013-05-11 01:35:00,60.4,59.9,30.01,NNE,22,1.1,-999.0,98,-99.99,,,0.00,Acu-Link.com,2013-05-11 06:35:00,
2013-05-11 01:50:00,60.4,59.9,30.02,West,270,0.0,-999.0,98,-99.99,,,0.00,Acu-Link.com,2013-05-11 06:50:00,
2013-05-11 02:05:00,60.8,60.2,30.02,NW,315,1.6,-999.0,98,-99.99,,,0.00,Acu-Link.com,2013-05-11 07:05:00,
2013-05-11 02:21:00,60.8,60.2,30.02,NNE,22,2.7,-999.0,98,-99.99,,,0.00,Acu-Link.com,2013-05-11 07:21:00,
2013-05-11 02:36:00,60.4,59.9,30.01,NE,45,2.7,-999.0,98,-99.99,,,0.00,Acu-Link.com,2013-05-11 07:36:00,
2013-05-11 02:51:00,59.9,59.3,30.02,NE,45,0.0,-999.0,98,-99.99,,,0.00,Acu-Link.com,2013-05-11 07:51:00,
2013-05-11 03:06:00,59.9,59.3,30.02,West,270,0.0,-999.0,98,-99.99,,,0.00,Acu-Link.com,2013-05-11 08:06:00,
2013-05-11 03:22:00,59.9,59.3,30.02,NNW,337,0.0,-999.0,98,-99.99,,,0.00,Acu-Link.com,2013-05-11 08:22:00,
2013-05-11 03:37:00,59.9,59.3,30.01,ENE,67,0.0,-999.0,98,-99.99,,,0.00,Acu-Link.com,2013-05-11 08:37:00,
2013-05-11 03:52:00,60.4,59.9,30.01,NE,45,2.7,-999.0,98,-99.99,,,0.00,Acu-Link.com,2013-05-11 08:52:00,
2013-05-11 04:07:00,59.4,58.8,30.01,NE,45,0.0,-999.0,98,-99.99,,,0.00,Acu-Link.com,2013-05-11 09:07:00,
2013-05-11 04:22:00,59.0,58.4,30.02,NE,45,0.0,-999.0,98,-99.99,,,0.00,Acu-Link.com,2013-05-11 09:22:00,
2013-05-11 04:37:00,59.0,58.4,30.02,NNW,337,0.0,-999.0,98,-99.99,,,0.00,Acu-Link.com,2013-05-11 09:37:00,
2013-05-11 04:52:00,58.5,57.9,30.03,NE,45,0.0,-999.0,98,-99.99,,,0.00,Acu-Link.com,2013-05-11 09:52:00,
2013-05-11 05:08:00,58.1,57.5,30.04,NNE,22,0.0,-999.0,98,-99.99,,,0.00,Acu-Link.com,2013-05-11 10:08:00,
2013-05-11 05:23:00,58.5,57.9,30.04,NNW,337,2.2,-999.0,98,-99.99,,,0.00,Acu-Link.com,2013-05-11 10:23:00,
2013-05-11 05:38:00,58.5,57.9,30.04,NNE,22,2.2,-999.0,98,-99.99,,,0.00,Acu-Link.com,2013-05-11 10:38:00,
2013-05-11 05:53:00,58.1,57.5,30.04,NE,45,2.2,-999.0,98,-99.99,,,0.00,Acu-Link.com,2013-05-11 10:53:00,
2013-05-11 06:08:00,57.7,57.2,30.04,North,0,2.2,-999.0,98,-99.99,,,0.00,Acu-Link.com,2013-05-11 11:08:00,
2013-05-11 06:24:00,57.9,57.4,30.04,NNW,337,4.3,-999.0,98,-99.99,,,0.00,Acu-Link.com,2013-05-11 11:24:00,
2013-05-11 06:39:00,57.7,57.2,30.05,NNE,22,3.8,-999.0,98,-99.99,,,0.00,Acu-Link.com,2013-05-11 11:39:00,
2013-05-11 06:54:00,57.4,56.8,30.06,NE,45,1.6,-999.0,98,-99.99,,,0.00,Acu-Link.com,2013-05-11 11:54:00,
2013-05-11 07:09:00,57.2,56.6,30.07,NE,45,0.0,-999.0,98,-99.99,,,0.00,Acu-Link.com,2013-05-11 12:09:00,
2013-05-11 07:25:00,58.8,58.3,30.07,NNE,22,0.0,-999.0,98,-99.99,,,0.00,Acu-Link.com,2013-05-11 12:25:00,
2013-05-11 07:40:00,60.1,59.5,30.07,NNW,337,3.1,-999.0,98,-99.99,,,0.00,Acu-Link.com,2013-05-11 12:40:00,
2013-05-11 07:55:00,61.3,60.8,30.06,ENE,67,4.3,-999.0,98,-99.99,,,0.00,Acu-Link.com,2013-05-11 12:55:00,
2013-05-11 08:10:00,62.4,61.8,30.07,NE,45,4.7,-999.0,98,-99.99,,,0.00,Acu-Link.com,2013-05-11 13:10:00,
2013-05-11 08:25:00,63.9,63.3,30.07,ENE,67,6.7,-999.0,98,-99.99,,,0.00,Acu-Link.com,2013-05-11 13:25:00,
2013-05-11 08:41:00,65.3,63.2,30.08,North,0,4.3,-999.0,93,-99.99,,,0.00,Acu-Link.com,2013-05-11 13:41:00,
2013-05-11 08:56:00,66.0,62.7,30.07,NE,45,5.8,-999.0,89,-99.99,,,0.00,Acu-Link.com,2013-05-11 13:56:00,
2013-05-11 09:11:00,66.7,61.7,30.08,NE,45,4.7,-999.0,84,-99.99,,,0.00,Acu-Link.com,2013-05-11 14:11:00,
2013-05-11 09:26:00,67.5,62.4,30.09,NNE,22,6.3,-999.0,84,-99.99,,,0.00,Acu-Link.com,2013-05-11 14:26:00,
2013-05-11 09:41:00,68.0,62.3,30.08,NNE,22,6.3,-999.0,82,-99.99,,,0.00,Acu-Link.com,2013-05-11 14:41:00,
2013-05-11 09:57:00,69.1,61.9,30.09,East,90,6.7,-999.0,78,-99.99,,,0.00,Acu-Link.com,2013-05-11 14:57:00,
2013-05-11 10:12:00,71.1,63.5,30.08,North,0,4.3,-999.0,77,-99.99,,,0.00,Acu-Link.com,2013-05-11 15:12:00,
2013-05-11 10:27:00,71.1,60.8,30.09,WNW,292,4.7,-999.0,70,-99.99,,,0.00,Acu-Link.com,2013-05-11 15:27:00,
2013-05-11 10:42:00,72.5,60.9,30.10,NNE,22,4.3,-999.0,67,-99.99,,,0.00,Acu-Link.com,2013-05-11 15:42:00,
2013-05-11 10:57:00,72.1,58.4,30.10,NE,45,8.9,-999.0,62,-99.99,,,0.00,Acu-Link.com,2013-05-11 15:57:00,
2013-05-11 11:13:00,72.7,58.0,30.10,NE,45,8.3,-999.0,60,-99.99,,,0.00,Acu-Link.com,2013-05-11 16:13:00,
2013-05-11 11:28:00,74.3,59.5,30.10,NNW,337,7.4,-999.0,60,-99.99,,,0.00,Acu-Link.com,2013-05-11 16:28:00,
2013-05-11 11:43:00,74.5,57.7,30.09,NE,45,4.3,-999.0,56,-99.99,,,0.00,Acu-Link.com,2013-05-11 16:43:00,
2013-05-11 11:58:00,75.0,58.2,30.09,NE,45,7.4,-999.0,56,-99.99,,,0.00,Acu-Link.com,2013-05-11 16:58:00,
2013-05-11 12:14:00,75.9,58.6,30.10,North,0,6.3,-999.0,55,-99.99,,,0.00,Acu-Link.com,2013-05-11 17:14:00,
2013-05-11 12:29:00,76.3,58.4,30.09,NNE,22,9.4,-999.0,54,-99.99,,,0.00,Acu-Link.com,2013-05-11 17:29:00,
2013-05-11 12:44:00,75.7,55.8,30.09,NE,45,4.7,-999.0,50,-99.99,,,0.00,Acu-Link.com,2013-05-11 17:44:00,
2013-05-11 12:59:00,77.5,56.9,30.09,NNE,22,12.5,-999.0,49,-99.99,,,0.00,Acu-Link.com,2013-05-11 17:59:00,
2013-05-11 13:14:00,77.4,56.1,30.09,ENE,67,5.1,-999.0,48,-99.99,,,0.00,Acu-Link.com,2013-05-11 18:14:00,
2013-05-11 13:30:00,77.7,55.3,30.08,NE,45,5.8,-999.0,46,-99.99,,,0.00,Acu-Link.com,2013-05-11 18:30:00,
2013-05-11 13:45:00,78.4,55.3,30.08,NNE,22,5.8,-999.0,45,-99.99,,,0.00,Acu-Link.com,2013-05-11 18:45:00,
2013-05-11 14:00:00,78.8,54.4,30.08,NNE,22,8.3,-999.0,43,-99.99,,,0.00,Acu-Link.com,2013-05-11 19:00:00,
2013-05-11 14:15:00,79.3,54.9,30.07,NNE,22,8.3,-999.0,43,-99.99,,,0.00,Acu-Link.com,2013-05-11 19:15:00,
2013-05-11 14:30:00,80.6,55.4,30.07,ENE,67,5.1,-999.0,42,-99.99,,,0.00,Acu-Link.com,2013-05-11 19:30:00,
2013-05-11 14:46:00,79.0,55.2,30.07,NNE,22,4.7,-999.0,44,-99.99,,,0.00,Acu-Link.com,2013-05-11 19:46:00,
2013-05-11 15:01:00,79.0,55.8,30.07,NE,45,6.3,-999.0,45,-99.99,,,0.00,Acu-Link.com,2013-05-11 20:01:00,
2013-05-11 15:16:00,78.6,54.9,30.06,NE,45,6.7,-999.0,44,-99.99,,,0.00,Acu-Link.com,2013-05-11 20:16:00,
2013-05-11 15:31:00,80.4,55.2,30.06,NE,45,8.9,-999.0,42,-99.99,,,0.00,Acu-Link.com,2013-05-11 20:31:00,
2013-05-11 15:46:00,79.0,53.9,30.05,ENE,67,5.1,-999.0,42,-99.99,,,0.00,Acu-Link.com,2013-05-11 20:46:00,
2013-05-11 16:02:00,80.2,55.0,30.04,NNE,22,8.3,-999.0,42,-99.99,,,0.00,Acu-Link.com,2013-05-11 21:02:00,
2013-05-11 16:17:00,81.0,55.7,30.04,NE,45,6.7,-999.0,42,-99.99,,,0.00,Acu-Link.com,2013-05-11 21:17:00,
2013-05-11 16:32:00,79.9,54.1,30.04,North,0,7.8,-999.0,41,-99.99,,,0.00,Acu-Link.com,2013-05-11 21:32:00,
2013-05-11 16:47:00,80.6,54.0,30.04,NE,45,9.4,-999.0,40,-99.99,,,0.00,Acu-Link.com,2013-05-11 21:47:00,
2013-05-11 17:03:00,80.2,53.7,30.03,NNE,22,7.4,-999.0,40,-99.99,,,0.00,Acu-Link.com,2013-05-11 22:03:00,
2013-05-11 17:18:00,79.5,53.1,30.03,NE,45,8.3,-999.0,40,-99.99,,,0.00,Acu-Link.com,2013-05-11 22:18:00,
2013-05-11 17:33:00,79.7,52.5,30.03,North,0,7.4,-999.0,39,-99.99,,,0.00,Acu-Link.com,2013-05-11 22:33:00,
2013-05-11 17:48:00,78.4,52.8,30.02,NNE,22,9.8,-999.0,41,-99.99,,,0.00,Acu-Link.com,2013-05-11 22:48:00,
2013-05-11 18:03:00,78.8,53.1,30.02,NNE,22,7.4,-999.0,41,-99.99,,,0.00,Acu-Link.com,2013-05-11 23:03:00,
2013-05-11 18:19:00,77.7,52.1,30.03,NE,45,5.8,-999.0,41,-99.99,,,0.00,Acu-Link.com,2013-05-11 23:19:00,
2013-05-11 18:34:00,77.7,54.0,30.03,NNE,22,4.7,-999.0,44,-99.99,,,0.00,Acu-Link.com,2013-05-11 23:34:00,
2013-05-11 18:49:00,77.4,53.1,30.03,NNE,22,3.1,-999.0,43,-99.99,,,0.00,Acu-Link.com,2013-05-11 23:49:00,
2013-05-11 19:04:00,76.5,53.5,30.03,NE,45,7.4,-999.0,45,-99.99,,,0.00,Acu-Link.com,2013-05-12 00:04:00,
2013-05-11 19:19:00,75.7,53.5,30.03,NNE,22,3.8,-999.0,46,-99.99,,,0.00,Acu-Link.com,2013-05-12 00:19:00,
2013-05-11 19:35:00,75.7,54.1,30.03,NE,45,2.7,-999.0,47,-99.99,,,0.00,Acu-Link.com,2013-05-12 00:35:00,
2013-05-11 19:50:00,75.0,54.0,30.04,NE,45,1.6,-999.0,48,-99.99,,,0.00,Acu-Link.com,2013-05-12 00:50:00,
2013-05-11 20:05:00,73.9,54.1,30.05,East,90,3.1,-999.0,50,-99.99,,,0.00,Acu-Link.com,2013-05-12 01:05:00,
2013-05-11 20:20:00,72.0,54.4,30.05,NE,45,0.0,-999.0,54,-99.99,,,0.00,Acu-Link.com,2013-05-12 01:20:00,
2013-05-11 20:35:00,69.8,54.8,30.06,NE,45,0.0,-999.0,59,-99.99,,,0.00,Acu-Link.com,2013-05-12 01:35:00,
2013-05-11 20:51:00,67.3,53.8,30.07,NE,45,0.0,-999.0,62,-99.99,,,0.00,Acu-Link.com,2013-05-12 01:51:00,
2013-05-11 21:06:00,64.9,55.7,30.08,South,180,0.0,-999.0,72,-99.99,,,0.00,Acu-Link.com,2013-05-12 02:06:00,
2013-05-11 21:21:00,63.5,56.2,30.09,South,180,0.0,-999.0,77,-99.99,,,0.00,Acu-Link.com,2013-05-12 02:21:00,
2013-05-11 21:36:00,62.1,56.5,30.09,South,180,0.0,-999.0,82,-99.99,,,0.00,Acu-Link.com,2013-05-12 02:36:00,
2013-05-11 21:51:00,61.3,56.1,30.10,South,180,0.0,-999.0,83,-99.99,,,0.00,Acu-Link.com,2013-05-12 02:51:00,
2013-05-11 22:07:00,60.6,58.6,30.11,South,180,0.0,-999.0,93,-99.99,,,0.00,Acu-Link.com,2013-05-12 03:07:00,
2013-05-11 22:22:00,60.1,57.4,30.11,South,180,0.0,-999.0,91,-99.99,,,0.00,Acu-Link.com,2013-05-12 03:22:00,
2013-05-11 22:37:00,59.5,57.8,30.11,South,180,0.0,-999.0,94,-99.99,,,0.00,Acu-Link.com,2013-05-12 03:37:00,
2013-05-11 22:52:00,59.5,59.0,30.11,South,180,0.0,-999.0,98,-99.99,,,0.00,Acu-Link.com,2013-05-12 03:52:00,
2013-05-11 23:08:00,59.0,58.4,30.11,South,180,0.0,-999.0,98,-99.99,,,0.00,Acu-Link.com,2013-05-12 04:08:00,
2013-05-11 23:23:00,58.3,57.7,30.11,South,180,0.0,-999.0,98,-99.99,,,0.00,Acu-Link.com,2013-05-12 04:23:00,
2013-05-11 23:38:00,57.6,57.0,30.11,ENE,67,0.0,-999.0,98,-99.99,,,0.00,Acu-Link.com,2013-05-12 04:38:00,
2013-05-11 23:53:00,56.8,56.3,30.12,ENE,67,0.0,-999.0,98,-99.99,,,0.00,Acu-Link.com,2013-05-12 04:53:00,